Location: Unspecified
(0.0000°N, 0.0000°E)
Time: 03:50:18
(UTC+00:00)

DMSP 5D-2 F-14 - Visible Passes

Search period start: 03 June 2023 00:00
Search period end: 13 June 2023 00:00
Orbit: 832 x 845 km, 98.9° (Epoch: 02 June)

Date Brightness Start Highest point End Pass type
(mag) Time Alt. Az. Time Alt. Az. Time Alt. Az.
03 Jun 6.6 18:57:56 11° ENE 18:57:56 11° ENE 18:59:02 10° ENE visible
03 Jun 6.1 20:39:41 33° NW 20:39:41 33° NW 20:42:57 10° NNW visible
04 Jun 5.5 20:24:04 45° NNW 20:24:04 45° NNW 20:27:48 10° NNW visible
05 Jun 5.1 20:08:26 51° N 20:08:26 51° N 20:12:28 10° N visible
06 Jun 5.2 19:52:48 43° NE 19:52:48 43° NE 19:56:55 10° N visible
07 Jun 5.6 19:37:11 31° ENE 19:37:11 31° ENE 19:41:08 10° NNE visible
07 Jun 7.4 21:18:56 13° WNW 21:18:56 13° WNW 21:19:49 10° WNW visible
08 Jun 6.0 19:21:34 21° ENE 19:21:34 21° ENE 19:25:03 10° NNE visible
08 Jun 6.9 21:03:18 20° WNW 21:03:18 20° WNW 21:05:31 10° NW visible
09 Jun 6.4 19:05:56 14° ENE 19:05:56 14° ENE 19:08:23 10° NE visible
09 Jun 6.4 20:47:41 29° WNW 20:47:41 29° WNW 20:50:47 10° NW visible
10 Jun 5.7 20:32:04 42° NW 20:32:04 42° NW 20:35:46 10° NNW visible
11 Jun 5.2 20:16:25 54° NNW 20:16:25 54° NNW 20:20:31 10° NNW visible
12 Jun 5.0 20:00:48 51° NNE 20:00:48 51° NNE 20:05:04 10° N visible
